Location: Artiguedieu
(43.5000°N, 0.5454°E)
Time: 06:59:20
(UTC+00:00)

A-11 Canister half - Visible Passes

Search period start: 24 July 2021 00:00
Search period end: 03 August 2021 00:00
Orbit: 1513 x 1687 km, 47.2° (Epoch: 23 July)

Date Brightness Start Highest point End Pass type
(mag) Time Alt. Az. Time Alt. Az. Time Alt. Az.
24 Jul 9.0 00:26:31 10° WNW 00:36:44 80° SSW 00:46:48 10° ESE visible
24 Jul 9.6 02:32:14 10° WNW 02:40:50 33° SW 02:49:16 10° S visible
24 Jul 9.3 19:52:27 10° WSW 20:02:29 89° NNW 20:12:46 10° ENE visible
24 Jul 9.4 21:58:02 10° W 22:08:13 72° N 22:18:25 10° E visible
25 Jul 9.0 00:03:32 10° WNW 00:13:46 82° SSW 00:23:53 10° ESE visible
25 Jul 9.5 02:09:10 10° WNW 02:17:57 35° SW 02:26:37 10° SSE visible
25 Jul 9.4 21:35:03 10° W 21:45:12 72° N 21:55:25 10° E visible
25 Jul 9.0 23:40:34 10° WNW 23:50:49 85° SSW 00:00:18 12° ESE visible
26 Jul 9.5 01:46:07 10° WNW 01:55:06 37° SW 01:58:08 31° SSW visible
26 Jul 9.4 21:12:04 10° W 21:22:11 72° N 21:32:25 10° E visible
26 Jul 9.0 23:17:35 10° WNW 23:27:51 87° SSW 23:35:34 20° ESE visible
27 Jul 9.4 01:23:05 10° WNW 01:32:13 39° SW 01:33:35 38° SSW visible
27 Jul 9.4 20:49:05 10° W 20:59:10 72° N 21:09:24 10° E visible
27 Jul 9.1 22:54:38 10° WNW 23:04:52 89° SSW 23:12:03 23° ESE visible
28 Jul 9.4 01:00:03 10° WNW 01:09:20 42° SW 01:10:07 41° SSW visible
28 Jul 9.4 20:26:06 10° W 20:36:10 72° N 20:46:24 10° E visible
28 Jul 9.1 22:31:40 10° WNW 22:41:53 89° NNE 22:49:01 23° ESE visible
29 Jul 9.3 00:37:03 10° WNW 00:46:27 44° SW 00:47:06 44° SSW visible
29 Jul 9.4 20:03:07 10° W 20:13:09 73° N 20:23:23 10° E visible
29 Jul 9.1 22:08:42 10° WNW 22:18:54 87° NNE 22:26:14 22° ESE visible
30 Jul 9.3 00:14:02 10° WNW 00:23:33 47° SW 00:24:21 46° SSW visible
30 Jul 9.5 19:40:08 10° W 19:50:09 73° N 20:00:23 10° E visible
30 Jul 9.1 21:45:44 10° WNW 21:55:56 85° NNE 22:03:38 21° ESE visible
30 Jul 9.2 23:51:03 10° WNW 00:00:39 49° SW 00:01:46 48° SSW visible
31 Jul 10.8 01:59:28 10° W 01:59:54 11° W 01:59:54 11° W visible
31 Jul 9.2 21:22:45 10° WNW 21:32:56 83° NNE 21:41:10 18° ESE visible
31 Jul 9.2 23:28:03 10° WNW 23:37:45 52° SW 23:39:18 48° SSW visible
01 Aug 10.7 01:35:56 10° W 01:37:26 12° W 01:37:26 12° W visible
01 Aug 9.2 20:59:48 10° WNW 21:09:57 81° NNE 21:18:48 15° ESE visible
01 Aug 9.2 23:05:04 10° WNW 23:14:50 54° SW 23:16:57 48° S visible
02 Aug 10.6 01:12:31 10° W 01:15:05 14° WSW 01:15:05 14° WSW visible
02 Aug 9.3 20:36:50 10° WNW 20:46:57 80° NNE 20:56:31 13° ESE visible
02 Aug 9.2 22:42:05 10° WNW 22:51:55 57° SW 22:54:40 46° S visible
